Location: *
(46.1866°S, 178.5290°W)
Time: 14:17:16
(UTC+00:00)

Cosmos 1461 - Pass Details

Date: 01 October 2021
Orbit: 520 x 642 km, 65.0° (Epoch: 24 October)

Event Time Altitude Azimuth Distance (km) Brightness Sun altitude
Rises 15:59:00 0° 214° (SW) 2,931 6.4 -15.1°
Reaches altitude 10° 16:01:19 10° 210° (SSW) 2,034 5.6 -14.8°
Maximum altitude 16:05:53 59° 130° (SE) 750 3.8 -14.0°
Drops below altitude 10° 16:10:30 10° 50° (NE) 2,048 6.1 -13.3°
Sets 16:12:49 0° 45° (NE) 2,953 6.9 -12.9°
